Weather History for KNQX - January, 2013

Change the Weather History Date:

Tuesday, January 1, 2013

  Actual Average Record
Temperature  
Mean Temperature 76 °F -  
Max Temperature 80 °F 76 °F 83 °F (1961)
Min Temperature 71 °F 67 °F 53 °F (2001)
Cooling Degree Days 10    
Growing Degree Days 26 (Base 50)    
Moisture  
Dew Point 65 °F    
Average Humidity 73    
Maximum Humidity 90    
Minimum Humidity 62    
Precipitation  
Precipitation 0.00 in - - ()
Sea Level Pressure  
Sea Level Pressure 30.09 in    
Wind  
Wind Speed 9 mph (ESE)    
Max Wind Speed 14 mph    
Max Gust Speed 23 mph    
Visibility 10 miles    
Events      
Averages and records for this station are not official NWS values.
T = Trace of Precipitation, MM = Missing Value Source: NWS Daily Summary

Daily Weather History Graph

Daily Weather History Graph

Search for Another Location

Airport or City:

Trip Planner

Search our weather history database for the weather conditions in past years. The results will help you decide how hot, cold, wet, or windy it might be!

Date:

Astronomy

Jan. 01, 2013 Rise Set
Actual Time 7:11 AM EST 5:50 PM EST
Civil Twilight 6:46 AM EST 6:14 PM EST
Nautical Twilight 6:17 AM EST 6:43 PM EST
Astronomical Twilight 5:50 AM EST 7:11 PM EST
Moon 9:49 PM EST (1/1) 9:49 AM EST (1/1)
Length of Visible Light 11h 28m
Length of Day
10h 39m
Waning Gibbous, 83% of the Moon is Illuminated
Jan 1
Waning Gibbous
Jan 4
Last Quarter
Jan 11
New
Jan 18
First Quarter
Jan 26
Full

Hourly Weather History & Observations

Time (EST) Temp. Heat Index Dew Point Humidity Pressure Visibility Wind Dir Wind Speed Gust Speed Precip Events Conditions
12:53 AM 73.0 °F - 60.1 °F 64% 30.15 in 10.0 mi ESE 9.2 mph - N/A   Overcast
1:53 AM 73.0 °F - 62.1 °F 68% 30.14 in 10.0 mi ESE 9.2 mph - N/A   Overcast
2:53 AM 72.0 °F - 62.1 °F 71% 30.13 in 10.0 mi East 4.6 mph - N/A   Overcast
3:53 AM 73.0 °F - 60.1 °F 64% 30.13 in 10.0 mi ESE 10.4 mph - N/A   Overcast
4:53 AM 72.0 °F - 61.0 °F 68% 30.12 in 10.0 mi East 5.8 mph - N/A   Overcast
5:53 AM 72.0 °F - 59.0 °F 64% 30.12 in 10.0 mi ESE 6.9 mph - N/A   Overcast
6:53 AM 71.1 °F - 61.0 °F 70% 30.12 in 10.0 mi ESE 5.8 mph - N/A   Mostly Cloudy
7:53 AM 73.9 °F - 61.0 °F 64% 30.12 in 10.0 mi SE 13.8 mph - N/A   Overcast
8:53 AM 75.9 °F - 62.1 °F 62% 30.14 in 10.0 mi SE 12.7 mph - N/A   Clear
9:53 AM 77.0 °F - 63.0 °F 62% 30.15 in 10.0 mi SE 10.4 mph - N/A   Clear
10:53 AM 79.0 °F - 64.9 °F 62% 30.14 in 10.0 mi ESE 12.7 mph - N/A   Clear
11:53 AM 79.0 °F - 66.0 °F 64% 30.11 in 10.0 mi ESE 12.7 mph 23.0 mph N/A   Clear
12:53 PM 80.1 °F 82.1 °F 66.0 °F 62% 30.07 in 10.0 mi ESE 13.8 mph - N/A   Clear
1:53 PM 79.0 °F - 66.9 °F 66% 30.04 in 10.0 mi SE 13.8 mph - N/A   Clear
2:53 PM 79.0 °F - 68.0 °F 69% 30.04 in 10.0 mi SE 13.8 mph - N/A   Clear
3:53 PM 78.1 °F - 68.0 °F 71% 30.03 in 10.0 mi SE 10.4 mph - N/A   Mostly Cloudy
4:53 PM 75.9 °F - 68.0 °F 76% 30.03 in 10.0 mi ESE 9.2 mph - N/A   Partly Cloudy
5:43 PM 73.4 °F - 68.0 °F 83% 30.04 in 10.0 mi East 9.2 mph - N/A   Mostly Cloudy
5:53 PM 73.9 °F - 68.0 °F 82% 30.04 in 10.0 mi ESE 9.2 mph - N/A   Mostly Cloudy
6:09 PM 73.4 °F - 68.0 °F 83% 30.04 in 10.0 mi ESE 8.1 mph - N/A   Scattered Clouds
6:53 PM 73.0 °F - 68.0 °F 84% 30.04 in 10.0 mi ESE 9.2 mph - N/A   Partly Cloudy
7:53 PM 73.0 °F - 68.0 °F 84% 30.05 in 10.0 mi ESE 8.1 mph - N/A   Clear
8:53 PM 72.0 °F - 68.0 °F 87% 30.06 in 10.0 mi ESE 6.9 mph - N/A   Clear
9:53 PM 71.1 °F - 68.0 °F 90% 30.07 in 10.0 mi ESE 4.6 mph - N/A   Clear
10:53 PM 71.1 °F - 66.9 °F 87% 30.07 in 10.0 mi ESE 4.6 mph - N/A   Partly Cloudy
11:53 PM 71.1 °F - 66.9 °F 87% 30.06 in 10.0 mi East 5.8 mph - N/A   Scattered Clouds